Satellite: OO-38
Catalog number: 26063
Epoch time:      07332.69542817
Element set:    0073
Inclination:      100.2196 deg
RA of node:       005.6683 deg
Eccentricity:    0.0037231
Arg of perigee:   057.1741 deg
Mean anomaly:     303.3013 deg
Mean motion:   14.35821230 rev/day
Decay rate:        7.0e-08 rev/day^2
Epoch rev:           41065
Checksum:              260

Satellite: ISS
Catalog number: 25544
Epoch time:      07333.61803439
Element set:     431
Inclination:      051.6420 deg
RA of node:       330.9733 deg
Eccentricity:    0.0000940
Arg of perigee:   212.6991 deg
Mean anomaly:     253.8284 deg
Mean motion:   15.76843412 rev/day
Decay rate:     1.8909e-04 rev/day^2
Epoch rev:           51687
Checksum:              301

Satellite: PO-34
Catalog number: 25520
Epoch time:      07332.44361735
Element set:    0878
Inclination:      028.4589 deg
RA of node:       089.3324 deg
Eccentricity:    0.0005793
Arg of perigee:   242.4519 deg
Mean anomaly:     117.5512 deg
Mean motion:   15.17089633 rev/day
Decay rate:       5.16e-06 rev/day^2
Epoch rev:           50249
Checksum:              315

Satellite: UARS
Catalog number: 21701
Epoch time:      07332.46820498
Element set:    0246
Inclination:      056.9751 deg
RA of node:       320.2520 deg
Eccentricity:    0.0092858
Arg of perigee:   146.8560 deg
Mean anomaly:     213.8361 deg
Mean motion:   15.49745388 rev/day
Decay rate:      3.767e-05 rev/day^2
Epoch rev:           89120
Checksum:              317

Satellite: HUBBLE
Catalog number: 20580
Epoch time:      07333.85126790
Element set:      16
Inclination:      028.4681 deg
RA of node:       189.7970 deg
Eccentricity:    0.0003470
Arg of perigee:   059.4693 deg
Mean anomaly:     300.6238 deg
Mean motion:   15.00309320 rev/day
Decay rate:       4.05e-06 rev/day^2
Epoch rev:           76486
Checksum:              290

/EX





More information about the Keps mailing list